Regional Weather Roundup
Issued by NWS

Home | Current Version | Previous Version | Graphics & Text | Print | Product List | Glossary On
Versions: 1 2 3 4 5 6 7 8 9 10 11 12 13 14 15 16 17 18 19 20 21 22 23 24 25 26 27 28 29 30 31 32 33 34 35 36 37 38 39 40 41 42 43 44 45 46 47 48 49 50
000
ASUS43 KFSD 220002
RWRSD

WEATHER ROUNDUP FOR SOUTH DAKOTA
NATIONAL WEATHER SERVICE SIOUX FALLS SD
700 PM CDT MON JUL 21 2014

NOTE: "FAIR" INDICATES FEW OR NO CLOUDS BELOW 12,000 FEET WITH NO
SIGNIFICANT WEATHER AND/OR OBSTRUCTIONS TO VISIBILITY.


SDZ001>005-009-010-012>017-220100-
NORTHWEST AND NORTH CENTRAL SOUTH DAKOTA

CITY           SKY/WX    TMP DP  RH WIND       PRES   REMARKS
BUFFALO          N/A     86  60  41 NW18      29.82R
FAITH            N/A     91  66  43 N15       29.82R
MOBRIDGE       MOSUNNY   80  65  59 N10       29.74R
$$

SDZ012>016-024>037-041>051-057-063-072>074-220100-
SOUTHWEST AND SOUTH CENTRAL SOUTH DAKOTA

CITY           SKY/WX    TMP DP  RH WIND       PRES   REMARKS
RAPID CTY ARPT MOSUNNY   89  56  32 N7        29.86S
PIERRE         SUNNY     98  61  29 NW12      29.73R HX  98
CUSTER         SUNNY     88  39  17 SW13G25   30.06F
ELLSWORTH AFB  MOSUNNY   94  48  21 N12       29.87R
PHILIP         SUNNY    101  53  20 W8        29.78R HX  99
PINE RIDGE     SUNNY     96  46  18 W12G24    29.88S
WINNER         FAIR     104  51  17 W12G21    29.77R HX 101
$$

SDZ004>011-016>023-039-040-220100-
NORTHEAST SOUTH DAKOTA

CITY           SKY/WX    TMP DP  RH WIND       PRES   REMARKS
ABERDEEN       SUNNY     87  77  72 S16       29.67F HX  99
WATERTOWN      MOSUNNY   84  75  74 S21G26    29.75F
SISSETON         N/A     87  78  74 S15G23    29.70R HX 100
$$

SDZ017-020-022-023-036>040-048>070-220100-
SOUTHEAST SOUTH DAKOTA

CITY           SKY/WX    TMP DP  RH WIND       PRES   REMARKS
SIOUX FALLS    MOSUNNY   87  78  74 S17G24    29.78F HX 100
HURON          SUNNY     92  77  61 SE15G22   29.68F HX 105
CHAMBERLAIN    SUNNY    101  56  22 W14       29.73R HX  99
MITCHELL       MOSUNNY   93  78  61 S17       29.71F HX 108
YANKTON        MOSUNNY   91  81  70 S10       29.76S HX 110
$$

ABBREVIATIONS USED IN REMARKS
   TC - TEMPERATURE IN CELSIUS
  WCI - WIND CHILL INDEX
   HX - HEAT INDEX
  VSB - VISIBILITY



USA.gov is the U.S. government's official web portal to all federal, state and local government web resources and services.